TITAN 3C TRANSTAGE DEB, 26050

Orbit data source: Space-Track

TITAN 3C TRANSTAGE DEB, 26050 is space debris in HEO originally from a launch on Tue, 21 Dec 1965 UTC launched from the Air Force Eastern Test Range (AFETR). Debris objects in space refer to the collection of defunct objects orbiting the Earth. Examples of debris include non-operational satellites, rocket bodies, and fragments generated from explosions, collisions, or faulty payload assembly.

Loading next visibility...
Identifier
26050, 1965-108AJ
Orbit
HEO
Country
Flag of USUS
Related business
Manufacturer
Unknown
Mission
Spacecraft
Bus & Motor
Unknown
Mass
Unknown
Launch date (UTC)
1965-12-21 (60 years ago)
Launch vehicle
Unknown
Launch site
Air Force Eastern Test Range (AFETR)
Object type
Payload
Rocket body
Debris
Shape & HBR
Unknown shape, 0.1 m
Radar Cross Section
Medium (>0.1 m² and <1 m²)

Expand to show TLE details & history
Last TLE update: 2 weeks ago

TLE from 2 weeks ago
0 TITAN 3C TRANSTAGE DEB
1 26050U 65108AJ  25279.29065154 -.00000402  00000-0 -23918-1 0  9992
2 26050  26.6879 327.6070 6612585 103.3833 333.0377  2.69806857259364
Epoch: 2025-10-06T06:58Z
TLE epoch observation values (Epoch: 2025-10-06T06:58:32.293Z)
Latitude
-0.00002°
Longitude
-152.18804°
Altitude
8,094.205 km
Speed
6.066 km/s
True Right ascension
21h 50m 34s
True Declination
0° 00' 00"
Sunlit
Object was in daylight at epoch
Visualization orbit readout
Latitude
Unknown
Longitude
Unknown
Altitude
Unknown
Speed
Unknown
Apparent Right ascension
Unknown
Apparent Declination
Unknown
Sunlit
N/A
Visualization observer readout
Local Sidereal Time
04:48:38
Azimuth
Unknown
Elevation
Unknown
Doppler factor
Unknown
Orbital elements
Apogee altitude
29,835.365 km
Perigee altitude
1,006.033 km
Semi-major axis
21,798.836 km
Eccentricity
0.66126
Inclination
26.6879°
RAAN
327.607°
Arg. of periapsis
103.3833°
True anomaly
256.44054°
Mean anomaly
333.0377°
Eccentric anomaly
300.33896°
Mean motion
0.67436 °/min
Orbital period
533.84 mins
BSTAR
-0.023918

Documentation

Showing up to 5 results
|